Ukiah, CA

10:56 PM PDT on March 23, 2017 (GMT -0700)
Ukiah Municipal

Weather History for KUKI - October, 2012

Change the Weather History Date:

Wednesday, October 17, 2012

  Actual Average Record
Temperature  
Mean Temperature 68 °F 60 °F  
Max Temperature 92 °F 77 °F 97 °F (1974)
Min Temperature 44 °F 43 °F 30 °F (1919)
Degree Days  
Heating Degree Days 0 5  
Month to date heating degree days 62  
Since 1 July heating degree days 95  
Cooling Degree Days 2 0  
Month to date cooling degree days 19  
Year to date cooling degree days 832  
Growing Degree Days 18 (Base 50)    
Moisture  
Dew Point 43 °F    
Average Humidity 55    
Maximum Humidity 93    
Minimum Humidity 16    
Precipitation  
Precipitation 0.00 in 0.07 in 0.75 in (1914)
Month to date precipitation T 0.57  
Year to date precipitation 18.92 24.54  
Since 1 July precipitation T  
Snow  
Snow 0.00 in - - ()
Month to date snowfall 0.0  
Since 1 July snowfall 0.0  
Since 1 September snowfall 0.0  
Snow Depth -    
Sea Level Pressure  
Sea Level Pressure 29.91 in    
Wind  
Wind Speed 1 mph (West)    
Max Wind Speed 6 mph    
Max Gust Speed 8 mph    
Visibility 10 miles    
Events      
T = Trace of Precipitation, MM = Missing Value Source: NWS Daily Summary

Daily Weather History Graph

Daily Weather History Graph

Search for Another Location

Airport or City:

Trip Planner

Search our weather history database for the weather conditions in past years. The results will help you decide how hot, cold, wet, or windy it might be!

Date:

Astronomy

Oct. 17, 2012 Rise Set
Actual Time 7:25 AM PDT 6:30 PM PDT
Civil Twilight 6:58 AM PDT 6:57 PM PDT
Nautical Twilight 6:26 AM PDT 7:28 PM PDT
Astronomical Twilight 5:55 AM PDT 7:59 PM PDT
Moon 10:04 AM PDT (10/17) 8:12 PM PDT (10/17)
Length of Visible Light 11h 59m
Length of Day
11h 05m
Waxing Crescent, 8% of the Moon is Illuminated
Oct 17
Waxing Crescent
Oct 21
First Quarter
Oct 29
Full
Nov 6
Last Quarter
Nov 13
New

Hourly Weather History & Observations

Time (PDT) Temp. Dew Point Humidity Pressure Visibility Wind Dir Wind Speed Gust Speed Precip Events Conditions
12:56 AM 55.0 °F 48.9 °F 80% 29.97 in 10.0 mi Calm Calm - N/A   Clear
1:56 AM 52.0 °F 46.9 °F 83% 29.98 in 10.0 mi Calm Calm - N/A   Clear
3:56 AM 51.1 °F 46.9 °F 86% 29.96 in 10.0 mi Calm Calm - N/A   Clear
4:56 AM 50.0 °F 46.0 °F 86% 29.96 in 10.0 mi Calm Calm - N/A   Clear
5:56 AM 46.0 °F 43.0 °F 89% 29.96 in 10.0 mi Calm Calm - N/A   Clear
6:56 AM 46.9 °F 44.1 °F 90% 29.95 in 10.0 mi Calm Calm - N/A   Clear
7:56 AM 45.0 °F 42.1 °F 90% 29.96 in 10.0 mi Calm Calm - N/A   Clear
8:56 AM 52.0 °F 46.0 °F 80% 29.97 in 10.0 mi Calm Calm - N/A   Clear
9:56 AM 59.0 °F 45.0 °F 60% 29.97 in 10.0 mi Calm Calm - N/A   Clear
10:56 AM 66.9 °F 43.0 °F 42% 29.95 in 10.0 mi Calm Calm - N/A   Clear
11:56 AM 73.0 °F 39.9 °F 30% 29.93 in 10.0 mi Variable 3.5 mph - N/A   Clear
12:56 PM 78.1 °F 39.0 °F 25% 29.90 in 10.0 mi WNW 3.5 mph - N/A   Clear
1:56 PM 84.0 °F 39.0 °F 20% 29.86 in 10.0 mi Calm Calm - N/A   Clear
3:56 PM 90.0 °F 37.0 °F 15% 29.82 in 10.0 mi West 3.5 mph - N/A   Clear
4:56 PM 90.0 °F 37.9 °F 16% 29.81 in 10.0 mi West 3.5 mph - N/A   Clear
5:56 PM 81.0 °F 37.9 °F 21% 29.82 in 10.0 mi Calm Calm - N/A   Clear
6:56 PM 73.9 °F 37.9 °F 27% 29.83 in 10.0 mi Calm Calm - N/A   Clear
7:56 PM 70.0 °F 39.9 °F 33% 29.86 in 10.0 mi Calm Calm - N/A   Clear
8:56 PM 62.1 °F 45.0 °F 53% 29.88 in 10.0 mi Calm Calm - N/A   Clear
9:56 PM 59.0 °F 45.0 °F 60% 29.89 in 10.0 mi Calm Calm - N/A   Clear
10:56 PM 57.9 °F 45.0 °F 62% 29.90 in 10.0 mi Calm Calm - N/A   Clear
11:56 PM 57.9 °F 41.0 °F 53% 29.90 in 10.0 mi Calm Calm - N/A   Clear